Вернуться в каталог

COSMOS 928

АктивенНавигацияPO
NORAD 10141·PAYLOAD·🇷🇺 Russia

Запущен Jul 13, 1977 с Plesetsk Cosmodrome

Loading…

Ближайшие Пролёты (ближайшие 24 часа)

TLE

СвежийSource: Space-Track

Эпоха: Sep 14, 2026, 11:06 UTC

1 10141U 77064A   26257.46319360  .00000049  00000-0  33380-4 0  9999
2 10141  82.9627  71.8625 0039110 114.5568 245.9674 13.76912965469786

Отслеживайте COSMOS 928 в реальном времени с AllMySat

Download on the App Store